| time (UTC) | temp F | wind direction | speed knots | gust knots | rain 1hr in | rain 24hr in | rain mn in | humidity % | barometer mb |
| 20260510032207 | 53 | 193 | 0.0 | 0.9 | 0.00 | 0.00 | 0.00 | 73 | 1010.9 |
| 20260510031701 | 54 | 227 | 0.0 | 1.7 | 0.00 | 0.00 | 0.00 | 72 | 1011.0 |
| 20260510031158 | 54 | 221 | 0.9 | 1.7 | 0.00 | 0.00 | 0.00 | 71 | 1010.8 |
| 20260510030652 | 54 | 271 | 0.9 | 1.7 | 0.00 | 0.00 | 0.00 | 72 | 1010.9 |
| 20260510030150 | 54 | 254 | 0.9 | 2.6 | 0.00 | 0.00 | 0.00 | 72 | 1011.0 |
| 20260510025647 | 53 | 227 | 0.9 | 1.7 | 0.00 | 0.00 | 0.00 | 73 | 1010.9 |
| 20260510025144 | 53 | 207 | 0.0 | 1.7 | 0.00 | 0.00 | 0.00 | 73 | 1011.1 |
| 20260510024642 | 53 | 209 | 0.9 | 1.7 | 0.00 | 0.00 | 0.00 | 73 | 1011.1 |
| 20260510024138 | 52 | 195 | 0.9 | 1.7 | 0.00 | 0.00 | 0.00 | 74 | 1010.8 |
| 20260510023634 | 53 | 160 | 0.0 | 0.9 | 0.00 | 0.00 | 0.00 | 73 | 1011.0 |
| 20260510023132 | 54 | 179 | 0.0 | 0.0 | 0.00 | 0.00 | 0.00 | 71 | 1010.9 |
| 20260510022631 | 54 | 178 | 0.0 | 0.9 | 0.00 | 0.00 | 0.00 | 71 | 1010.9 |
| 20260510022126 | 55 | 108 | 0.0 | 0.9 | 0.00 | 0.00 | 0.00 | 70 | 1010.7 |
| 20260510021622 | 56 | 227 | 0.9 | 0.9 | 0.00 | 0.00 | 0.00 | 69 | 1010.7 |
| 20260510021120 | 56 | 199 | 0.9 | 1.7 | 0.00 | 0.00 | 0.00 | 67 | 1010.5 |
| 20260510020613 | 57 | 218 | 0.9 | 2.6 | 0.00 | 0.00 | 0.00 | 66 | 1010.6 |
| 20260510020109 | 57 | 204 | 0.0 | 1.7 | 0.00 | 0.00 | 0.00 | 66 | 1010.4 |
| 20260510015605 | 57 | 231 | 0.9 | 1.7 | 0.00 | 0.00 | 0.00 | 66 | 1010.2 |
| 20260510015102 | 57 | 193 | 0.0 | 1.7 | 0.00 | 0.00 | 0.00 | 64 | 1009.9 |
| 20260510014558 | 57 | 186 | 0.9 | 1.7 | 0.00 | 0.00 | 0.00 | 64 | 1010.2 |
| 20260510014056 | 58 | 217 | 0.0 | 0.9 | 0.00 | 0.00 | 0.00 | 64 | 1009.9 |
| 20260510013555 | 58 | 232 | 0.9 | 1.7 | 0.00 | 0.00 | 0.00 | 64 | 1009.9 |
| 20260510013052 | 59 | 253 | 0.9 | 1.7 | 0.00 | 0.00 | 0.00 | 62 | 1009.5 |
| 20260510012551 | 59 | 333 | 0.9 | 1.7 | 0.00 | 0.00 | 0.00 | 62 | 1009.7 |
| 20260510012048 | 59 | 252 | 0.9 | 1.7 | 0.00 | 0.00 | 0.00 | 61 | 1009.6 |
| 20260510011547 | 59 | 256 | 1.7 | 1.7 | 0.00 | 0.00 | 0.00 | 59 | 1009.6 |
| 20260510011043 | 59 | 269 | 0.9 | 2.6 | 0.00 | 0.00 | 0.00 | 60 | 1009.5 |
| 20260510010540 | 60 | 275 | 1.7 | 1.7 | 0.00 | 0.00 | 0.00 | 60 | 1009.5 |
| 20260510010037 | 59 | 237 | 0.9 | 1.7 | 0.00 | 0.00 | 0.00 | 59 | 1009.5 |
| 20260510005533 | 60 | 224 | 0.0 | 0.9 | 0.00 | 0.00 | 0.00 | 60 | 1009.4 |
| 20260510005031 | 59 | 235 | 0.0 | 0.9 | 0.00 | 0.00 | 0.00 | 59 | 1009.3 |
| 20260510004528 | 60 | 309 | 1.7 | 1.7 | 0.00 | 0.00 | 0.00 | 59 | 1009.3 |
| 20260510004026 | 59 | 257 | 0.0 | 0.0 | 0.00 | 0.00 | 0.00 | 60 | 1009.0 |
| 20260510003523 | 59 | 210 | 0.0 | 0.0 | 0.00 | 0.00 | 0.00 | 60 | 1009.1 |
| 20260510003018 | 60 | 210 | 0.0 | 0.0 | 0.00 | 0.00 | 0.00 | 60 | 1009.0 |
| 20260510002514 | 60 | 254 | 0.9 | 0.9 | 0.00 | 0.00 | 0.00 | 59 | 1008.9 |
| 20260510002011 | 60 | 199 | 0.0 | 0.0 | 0.00 | 0.00 | 0.00 | 58 | 1008.8 |
| 20260510001508 | 60 | 193 | 0.0 | 0.0 | 0.00 | 0.00 | 0.00 | 57 | 1008.5 |
| 20260510001006 | 60 | 122 | 0.0 | 0.0 | 0.00 | 0.00 | 0.00 | 58 | 1008.5 |
| 20260510000501 | 61 | 125 | 0.0 | 0.0 | 0.00 | 0.00 | 0.00 | 57 | 1008.4 |
| 20260509235958 | 61 | 206 | 0.0 | 0.0 | 0.00 | 0.00 | 0.00 | 58 | 1008.3 |
| 20260509235455 | 62 | 195 | 0.0 | 1.7 | 0.00 | 0.00 | 0.00 | 56 | 1008.3 |
| 20260509234951 | 62 | 177 | 0.0 | 1.7 | 0.00 | 0.00 | 0.00 | 55 | 1008.4 |
| 20260509234448 | 62 | 225 | 0.0 | 0.9 | 0.00 | 0.00 | 0.00 | 56 | 1008.2 |
| 20260509233946 | 63 | 165 | 0.0 | 2.6 | 0.00 | 0.00 | 0.00 | 54 | 1008.0 |
| 20260509233443 | 63 | 155 | 0.0 | 0.0 | 0.00 | 0.00 | 0.00 | 54 | 1008.2 |
| 20260509232939 | 64 | 169 | 0.0 | 0.9 | 0.00 | 0.00 | 0.00 | 52 | 1008.6 |
| 20260509232437 | 64 | 262 | 1.7 | 2.6 | 0.00 | 0.00 | 0.00 | 52 | 1008.5 |
| 20260509231932 | 64 | 275 | 1.7 | 1.7 | 0.00 | 0.00 | 0.00 | 54 | 1008.4 |
| 20260509231430 | 64 | 193 | 0.9 | 2.6 | 0.00 | 0.00 | 0.00 | 52 | 1008.4 |
| 20260509230928 | 65 | 173 | 0.0 | 0.9 | 0.00 | 0.00 | 0.00 | 51 | 1008.2 |
| 20260509230424 | 65 | 148 | 0.0 | 5.2 | 0.00 | 0.00 | 0.00 | 52 | 1008.6 |
| 20260509225920 | 66 | 135 | 0.9 | 0.9 | 0.00 | 0.00 | 0.00 | 50 | 1008.3 |
| 20260509225417 | 66 | 110 | 0.9 | 2.6 | 0.00 | 0.00 | 0.00 | 51 | 1008.6 |
| 20260509224913 | 66 | 118 | 2.6 | 2.6 | 0.00 | 0.00 | 0.00 | 50 | 1008.3 |
| 20260509224414 | 66 | 158 | 0.9 | 2.6 | 0.00 | 0.00 | 0.00 | 48 | 1008.4 |
| 20260509223911 | 67 | 97 | 1.7 | 1.7 | 0.00 | 0.00 | 0.00 | 48 | 1008.4 |
| 20260509223408 | 67 | 133 | 1.7 | 2.6 | 0.00 | 0.00 | 0.00 | 47 | 1008.2 |
| 20260509222905 | 68 | 109 | 1.7 | 5.2 | 0.00 | 0.00 | 0.00 | 47 | 1008.2 |
| 20260509222400 | 68 | 181 | 0.0 | 1.7 | 0.00 | 0.00 | 0.00 | 46 | 1008.2 |
| 20260509221855 | 68 | 124 | 0.9 | 1.7 | 0.00 | 0.00 | 0.00 | 47 | 1008.5 |
| 20260509221353 | 69 | 123 | 0.9 | 1.7 | 0.00 | 0.00 | 0.00 | 45 | 1008.5 |
| 20260509220849 | 69 | 338 | 1.7 | 2.6 | 0.00 | 0.00 | 0.00 | 47 | 1008.5 |
| 20260509220345 | 69 | 334 | 5.2 | 6.1 | 0.00 | 0.00 | 0.00 | 43 | 1008.2 |
| 20260509215840 | 69 | 291 | 2.6 | 4.3 | 0.00 | 0.00 | 0.00 | 45 | 1008.3 |
| 20260509215337 | 69 | 198 | 0.0 | 2.6 | 0.00 | 0.00 | 0.00 | 45 | 1008.2 |
| 20260509214834 | 69 | 124 | 0.9 | 4.3 | 0.00 | 0.00 | 0.00 | 47 | 1008.0 |
| 20260509214332 | 69 | 143 | 1.7 | 1.7 | 0.00 | 0.00 | 0.00 | 43 | 1008.0 |
| 20260509213829 | 69 | 59 | 1.7 | 2.6 | 0.00 | 0.00 | 0.00 | 45 | 1008.2 |
| 20260509213324 | 69 | 196 | 0.9 | 4.3 | 0.00 | 0.00 | 0.00 | 44 | 1008.0 |
| 20260509212822 | 70 | 155 | 0.0 | 0.9 | 0.00 | 0.00 | 0.00 | 43 | 1007.8 |
| 20260509212320 | 71 | 12 | 0.9 | 4.3 | 0.00 | 0.00 | 0.00 | 42 | 1007.7 |
| 20260509211815 | 70 | 104 | 0.9 | 1.7 | 0.00 | 0.00 | 0.00 | 42 | 1007.5 |
| 20260509211311 | 69 | 258 | 0.9 | 1.7 | 0.00 | 0.00 | 0.00 | 41 | 1007.9 |
| 20260509210808 | 69 | 91 | 0.9 | 0.9 | 0.00 | 0.00 | 0.00 | 43 | 1007.8 |
| 20260509210305 | 68 | 328 | 2.6 | 4.3 | 0.00 | 0.00 | 0.00 | 43 | 1007.5 |
| 20260509205804 | 69 | 124 | 0.0 | 2.6 | 0.00 | 0.00 | 0.00 | 44 | 1007.6 |
| 20260509205300 | 69 | 102 | 0.0 | 1.7 | 0.00 | 0.00 | 0.00 | 43 | 1007.6 |
| 20260509204756 | 69 | 162 | 0.0 | 1.7 | 0.00 | 0.00 | 0.00 | 43 | 1007.5 |
| 20260509204252 | 69 | 252 | 2.6 | 7.8 | 0.00 | 0.00 | 0.00 | 42 | 1007.5 |
| 20260509203748 | 69 | 178 | 0.0 | 4.3 | 0.00 | 0.00 | 0.00 | 41 | 1007.5 |
| 20260509203246 | 69 | 133 | 0.0 | 2.6 | 0.00 | 0.00 | 0.00 | 41 | 1007.3 |
| 20260509202742 | 70 | 139 | 0.0 | 2.6 | 0.00 | 0.00 | 0.00 | 40 | 1007.3 |
| 20260509202238 | 70 | 121 | 2.6 | 6.1 | 0.00 | 0.00 | 0.00 | 43 | 1007.2 |
| 20260509201733 | 71 | 13 | 2.6 | 4.3 | 0.00 | 0.00 | 0.00 | 40 | 1007.4 |
| 20260509201230 | 70 | 102 | 0.9 | 1.7 | 0.00 | 0.00 | 0.00 | 41 | 1007.4 |
| 20260509200726 | 70 | 323 | 2.6 | 2.6 | 0.00 | 0.00 | 0.00 | 44 | 1007.4 |
| 20260509200221 | 69 | 322 | 0.9 | 2.6 | 0.00 | 0.00 | 0.00 | 40 | 1007.2 |
| 20260509195717 | 70 | 43 | 1.7 | 9.6 | 0.00 | 0.00 | 0.00 | 40 | 1007.2 |
| 20260509195213 | 71 | 200 | 3.5 | 6.1 | 0.00 | 0.00 | 0.00 | 38 | 1007.3 |
| 20260509194712 | 73 | 130 | 3.5 | 7.0 | 0.00 | 0.00 | 0.00 | 38 | 1007.2 |
| 20260509194209 | 71 | 75 | 2.6 | 5.2 | 0.00 | 0.00 | 0.00 | 38 | 1007.3 |
| 20260509193706 | 68 | 155 | 4.3 | 5.2 | 0.00 | 0.00 | 0.00 | 45 | 1006.9 |
| 20260509193206 | 68 | 49 | 3.5 | 4.3 | 0.00 | 0.00 | 0.00 | 44 | 1007.3 |
| 20260509192703 | 68 | 52 | 0.9 | 4.3 | 0.00 | 0.00 | 0.00 | 44 | 1007.2 |
| 20260509192158 | 69 | 300 | 4.3 | 8.7 | 0.00 | 0.00 | 0.00 | 43 | 1007.3 |
| 20260509191653 | 69 | 300 | 2.6 | 2.6 | 0.00 | 0.00 | 0.00 | 45 | 1007.2 |
| 20260509191150 | 69 | 140 | 2.6 | 4.3 | 0.00 | 0.00 | 0.00 | 48 | 1007.5 |
| 20260509190646 | 68 | 116 | 0.9 | 2.6 | 0.00 | 0.00 | 0.00 | 46 | 1007.4 |
| 20260509190143 | 68 | 338 | 0.9 | 2.6 | 0.00 | 0.00 | 0.00 | 44 | 1007.5 |
| 20260509185641 | 69 | 143 | 0.9 | 6.1 | 0.00 | 0.00 | 0.00 | 47 | 1007.4 |
| 20260509185137 | 68 | 106 | 0.9 | 2.6 | 0.00 | 0.00 | 0.00 | 47 | 1007.6 |
| 20260509184635 | 68 | 138 | 1.7 | 7.8 | 0.00 | 0.00 | 0.00 | 46 | 1007.4 |
| 20260509184131 | 69 | 83 | 1.7 | 2.6 | 0.00 | 0.00 | 0.00 | 47 | 1007.8 |
| 20260509183628 | 68 | 165 | 0.0 | 7.8 | 0.00 | 0.00 | 0.00 | 50 | 1007.9 |
| 20260509183123 | 68 | 164 | 0.9 | 2.6 | 0.00 | 0.00 | 0.00 | 48 | 1007.8 |
| 20260509182619 | 71 | 134 | 4.3 | 7.0 | 0.00 | 0.00 | 0.00 | 46 | 1007.9 |
| 20260509182117 | 69 | 144 | 1.7 | 2.6 | 0.00 | 0.00 | 0.00 | 49 | 1008.0 |
| 20260509181615 | 69 | 100 | 0.9 | 1.7 | 0.00 | 0.00 | 0.00 | 48 | 1007.9 |
| 20260509181111 | 70 | 131 | 5.2 | 7.8 | 0.00 | 0.00 | 0.00 | 49 | 1007.8 |
| 20260509180608 | 67 | 82 | 2.6 | 4.3 | 0.00 | 0.00 | 0.00 | 54 | 1007.9 |
| 20260509180105 | 66 | 146 | 0.9 | 4.3 | 0.00 | 0.00 | 0.00 | 54 | 1008.2 |
| 20260509175600 | 66 | 119 | 3.5 | 4.3 | 0.00 | 0.00 | 0.00 | 53 | 1008.1 |
| 20260509175058 | 66 | 62 | 3.5 | 5.2 | 0.00 | 0.00 | 0.00 | 53 | 1008.5 |
| 20260509174554 | 66 | 71 | 1.7 | 5.2 | 0.00 | 0.00 | 0.00 | 56 | 1008.4 |
| 20260509174049 | 64 | 75 | 4.3 | 6.1 | 0.00 | 0.00 | 0.00 | 59 | 1008.5 |
| 20260509173544 | 64 | 63 | 3.5 | 6.1 | 0.00 | 0.00 | 0.00 | 56 | 1008.8 |
| 20260509173040 | 62 | 150 | 0.0 | 4.3 | 0.00 | 0.00 | 0.00 | 59 | 1008.9 |
| 20260509172538 | 61 | 74 | 3.5 | 6.1 | 0.00 | 0.00 | 0.00 | 63 | 1009.0 |
| 20260509172033 | 60 | 64 | 1.7 | 2.6 | 0.00 | 0.00 | 0.00 | 67 | 1009.3 |
| 20260509171529 | 60 | 89 | 3.5 | 4.3 | 0.00 | 0.00 | 0.00 | 66 | 1009.1 |
| 20260509171026 | 60 | 101 | 4.3 | 7.0 | 0.00 | 0.00 | 0.00 | 66 | 1009.0 |
| 20260509170521 | 61 | 38 | 3.5 | 4.3 | 0.00 | 0.00 | 0.00 | 64 | 1009.3 |
| 20260509170018 | 60 | 201 | 2.6 | 7.0 | 0.00 | 0.00 | 0.00 | 64 | 1009.2 |
| 20260509165517 | 60 | 8 | 3.5 | 5.2 | 0.00 | 0.00 | 0.00 | 64 | 1009.2 |
| 20260509165012 | 60 | 82 | 4.3 | 5.2 | 0.00 | 0.00 | 0.00 | 64 | 1009.1 |
| 20260509164508 | 60 | 57 | 3.5 | 7.8 | 0.00 | 0.00 | 0.00 | 66 | 1008.8 |
| 20260509164004 | 61 | 71 | 5.2 | 7.0 | 0.00 | 0.00 | 0.00 | 62 | 1009.0 |
| 20260509163502 | 63 | 68 | 3.5 | 7.0 | 0.00 | 0.00 | 0.00 | 61 | 1008.8 |
| 20260509163001 | 63 | 320 | 0.0 | 0.0 | 0.00 | 0.00 | 0.00 | 54 | 1008.9 |
| 20260509162500 | 64 | 185 | 0.0 | 0.0 | 0.00 | 0.00 | 0.00 | 52 | 1008.9 |
| 20260509161955 | 64 | 99 | 0.0 | 1.7 | 0.00 | 0.00 | 0.00 | 51 | 1008.9 |
| 20260509161452 | 64 | 9 | 0.0 | 1.7 | 0.00 | 0.00 | 0.00 | 51 | 1008.8 |
| 20260509160947 | 65 | 152 | 0.0 | 0.9 | 0.00 | 0.00 | 0.00 | 53 | 1008.6 |
| 20260509160443 | 65 | 111 | 0.0 | 0.9 | 0.00 | 0.00 | 0.00 | 52 | 1008.5 |
| 20260509155938 | 65 | 331 | 0.0 | 0.9 | 0.00 | 0.00 | 0.00 | 51 | 1008.4 |
| 20260509155435 | 65 | 154 | 0.9 | 2.6 | 0.00 | 0.00 | 0.00 | 51 | 1008.8 |
| 20260509154932 | 65 | 142 | 1.7 | 2.6 | 0.00 | 0.00 | 0.00 | 53 | 1008.4 |
| 20260509154428 | 65 | 149 | 0.9 | 2.6 | 0.00 | 0.00 | 0.00 | 53 | 1008.8 |
| 20260509153925 | 65 | 144 | 0.9 | 1.7 | 0.00 | 0.00 | 0.00 | 52 | 1008.5 |
| 20260509153422 | 65 | 139 | 1.7 | 2.6 | 0.00 | 0.00 | 0.00 | 52 | 1008.8 |
| 20260509152919 | 65 | 128 | 2.6 | 6.1 | 0.00 | 0.00 | 0.00 | 52 | 1008.8 |
| 20260509152415 | 65 | 186 | 0.9 | 2.6 | 0.00 | 0.00 | 0.00 | 52 | 1008.8 |
| 20260509151913 | 64 | 121 | 0.9 | 2.6 | 0.00 | 0.00 | 0.00 | 52 | 1008.4 |
| 20260509151408 | 64 | 124 | 1.7 | 1.7 | 0.00 | 0.00 | 0.00 | 56 | 1008.6 |
| 20260509150906 | 64 | 150 | 0.0 | 2.6 | 0.00 | 0.00 | 0.00 | 53 | 1008.5 |
| 20260509150404 | 63 | 140 | 0.0 | 2.6 | 0.00 | 0.00 | 0.00 | 54 | 1008.5 |
| 20260509145902 | 63 | 126 | 0.0 | 2.6 | 0.00 | 0.00 | 0.00 | 55 | 1008.8 |
| 20260509145401 | 64 | 117 | 0.0 | 4.3 | 0.00 | 0.00 | 0.00 | 54 | 1009.0 |
| 20260509144858 | 64 | 121 | 1.7 | 4.3 | 0.00 | 0.00 | 0.00 | 56 | 1009.0 |
| 20260509144354 | 64 | 155 | 2.6 | 5.2 | 0.00 | 0.00 | 0.00 | 56 | 1008.9 |
| 20260509143852 | 65 | 341 | 4.3 | 5.2 | 0.00 | 0.00 | 0.00 | 53 | 1008.8 |
| 20260509143350 | 64 | 119 | 2.6 | 4.3 | 0.00 | 0.00 | 0.00 | 56 | 1008.9 |
| 20260509142845 | 64 | 203 | 2.6 | 4.3 | 0.00 | 0.00 | 0.00 | 58 | 1008.8 |
| 20260509142342 | 65 | 153 | 2.6 | 6.1 | 0.00 | 0.00 | 0.00 | 56 | 1008.8 |
| 20260509141837 | 64 | 200 | 1.7 | 1.7 | 0.00 | 0.00 | 0.00 | 56 | 1008.8 |
| 20260509141334 | 65 | 127 | 1.7 | 7.0 | 0.00 | 0.00 | 0.00 | 55 | 1008.9 |
| 20260509140831 | 65 | 118 | 2.6 | 6.1 | 0.00 | 0.00 | 0.00 | 58 | 1009.0 |
| 20260509140328 | 64 | 168 | 1.7 | 4.3 | 0.00 | 0.00 | 0.00 | 56 | 1009.0 |
| 20260509135826 | 63 | 153 | 0.9 | 4.3 | 0.00 | 0.00 | 0.00 | 57 | 1009.3 |
| 20260509135323 | 62 | 133 | 0.9 | 5.2 | 0.00 | 0.00 | 0.00 | 59 | 1009.4 |
| 20260509134820 | 61 | 132 | 0.9 | 2.6 | 0.00 | 0.00 | 0.00 | 61 | 1009.5 |
| 20260509134318 | 61 | 231 | 1.7 | 4.3 | 0.00 | 0.00 | 0.00 | 59 | 1009.6 |
| 20260509133815 | 60 | 146 | 1.7 | 2.6 | 0.00 | 0.00 | 0.00 | 61 | 1009.5 |
| 20260509133311 | 59 | 152 | 0.9 | 6.1 | 0.00 | 0.00 | 0.00 | 64 | 1009.7 |
| 20260509132810 | 58 | 238 | 1.7 | 5.2 | 0.00 | 0.00 | 0.00 | 64 | 1009.8 |
| 20260509132308 | 58 | 144 | 1.7 | 4.3 | 0.00 | 0.00 | 0.00 | 65 | 1009.9 |
| 20260509131804 | 57 | 270 | 1.7 | 2.6 | 0.00 | 0.00 | 0.00 | 64 | 1009.9 |
| 20260509131302 | 57 | 135 | 1.7 | 2.6 | 0.00 | 0.00 | 0.00 | 65 | 1009.8 |
| 20260509130757 | 57 | 107 | 1.7 | 4.3 | 0.00 | 0.00 | 0.00 | 67 | 1010.1 |
| 20260509130253 | 56 | 133 | 0.0 | 1.7 | 0.00 | 0.00 | 0.00 | 69 | 1009.9 |
| 20260509125750 | 55 | 123 | 0.9 | 1.7 | 0.00 | 0.00 | 0.00 | 72 | 1010.0 |
| 20260509125247 | 55 | 119 | 0.9 | 2.6 | 0.00 | 0.00 | 0.00 | 69 | 1009.9 |
| 20260509124743 | 54 | 153 | 1.7 | 2.6 | 0.00 | 0.00 | 0.00 | 70 | 1010.0 |
| 20260509124240 | 54 | 174 | 0.0 | 1.7 | 0.00 | 0.00 | 0.00 | 70 | 1009.7 |
| 20260509123739 | 53 | 162 | 0.9 | 0.9 | 0.00 | 0.00 | 0.00 | 71 | 1009.7 |
| 20260509123236 | 53 | 125 | 0.0 | 1.7 | 0.00 | 0.00 | 0.00 | 71 | 1009.4 |
| 20260509122731 | 53 | 348 | 0.0 | 1.7 | 0.00 | 0.00 | 0.00 | 69 | 1009.6 |
| 20260509122228 | 52 | 267 | 1.7 | 2.6 | 0.00 | 0.00 | 0.00 | 69 | 1009.6 |
| 20260509121725 | 52 | 194 | 0.9 | 1.7 | 0.00 | 0.00 | 0.00 | 70 | 1009.7 |
| 20260509121222 | 52 | 222 | 0.9 | 2.6 | 0.00 | 0.00 | 0.00 | 70 | 1009.5 |
| 20260509120720 | 51 | 169 | 0.9 | 2.6 | 0.00 | 0.00 | 0.00 | 71 | 1009.7 |
| 20260509120218 | 51 | 174 | 0.0 | 0.9 | 0.00 | 0.00 | 0.00 | 71 | 1009.6 |
| 20260509115715 | 51 | 187 | 0.0 | 0.9 | 0.00 | 0.00 | 0.00 | 71 | 1009.6 |
| 20260509115212 | 51 | 182 | 0.9 | 0.9 | 0.00 | 0.00 | 0.00 | 71 | 1009.6 |
| 20260509114711 | 50 | 195 | 0.0 | 0.9 | 0.00 | 0.00 | 0.00 | 72 | 1009.8 |
| 20260509114209 | 50 | 302 | 1.7 | 2.6 | 0.00 | 0.00 | 0.00 | 71 | 1009.8 |
| 20260509113707 | 50 | 127 | 0.0 | 1.7 | 0.00 | 0.00 | 0.00 | 72 | 1009.8 |
| 20260509113204 | 50 | 186 | 0.0 | 1.7 | 0.00 | 0.00 | 0.00 | 73 | 1009.8 |
| 20260509112700 | 50 | 177 | 0.0 | 1.7 | 0.00 | 0.00 | 0.00 | 72 | 1009.6 |
| 20260509112158 | 50 | 341 | 1.7 | 1.7 | 0.00 | 0.00 | 0.00 | 71 | 1009.9 |
| 20260509111655 | 49 | 223 | 0.9 | 1.7 | 0.00 | 0.00 | 0.00 | 71 | 1009.8 |
| 20260509111151 | 49 | 210 | 0.9 | 1.7 | 0.00 | 0.00 | 0.00 | 74 | 1009.8 |
| 20260509110649 | 49 | 196 | 0.9 | 0.9 | 0.00 | 0.00 | 0.00 | 73 | 1009.8 |
| 20260509110145 | 49 | 184 | 0.0 | 0.0 | 0.00 | 0.00 | 0.00 | 74 | 1009.7 |
| 20260509105644 | 49 | 174 | 0.0 | 1.7 | 0.00 | 0.00 | 0.00 | 73 | 1009.9 |
| 20260509105141 | 49 | 348 | 0.0 | 1.7 | 0.00 | 0.00 | 0.00 | 73 | 1009.5 |
| 20260509104638 | 49 | 282 | 1.7 | 1.7 | 0.00 | 0.00 | 0.00 | 72 | 1009.6 |
| 20260509104134 | 49 | 276 | 3.5 | 4.3 | 0.00 | 0.00 | 0.00 | 72 | 1009.6 |
| 20260509103633 | 49 | 153 | 0.0 | 1.7 | 0.00 | 0.00 | 0.00 | 73 | 1009.7 |
| 20260509103131 | 49 | 190 | 0.9 | 2.6 | 0.00 | 0.00 | 0.00 | 72 | 1009.6 |
| 20260509102628 | 49 | 181 | 0.0 | 0.0 | 0.00 | 0.00 | 0.00 | 70 | 1009.5 |
| 20260509102125 | 50 | 186 | 0.0 | 1.7 | 0.00 | 0.00 | 0.00 | 70 | 1009.6 |
| 20260509101621 | 50 | 317 | 1.7 | 4.3 | 0.00 | 0.00 | 0.00 | 70 | 1009.7 |
| 20260509101118 | 49 | 208 | 0.0 | 0.9 | 0.00 | 0.00 | 0.00 | 70 | 1009.5 |
| 20260509100615 | 49 | 340 | 0.9 | 2.6 | 0.00 | 0.00 | 0.00 | 69 | 1009.5 |
| 20260509100112 | 50 | 343 | 2.6 | 2.6 | 0.00 | 0.00 | 0.00 | 68 | 1009.3 |
| 20260509095608 | 49 | 274 | 0.9 | 1.7 | 0.00 | 0.00 | 0.00 | 69 | 1009.7 |
| 20260509095106 | 50 | 222 | 2.6 | 2.6 | 0.00 | 0.00 | 0.00 | 69 | 1009.8 |
| 20260509094602 | 49 | 242 | 0.9 | 2.6 | 0.00 | 0.00 | 0.00 | 69 | 1009.8 |
| 20260509094059 | 49 | 114 | 0.0 | 0.9 | 0.00 | 0.00 | 0.00 | 70 | 1009.6 |
| 20260509093558 | 49 | 357 | 0.9 | 2.6 | 0.00 | 0.00 | 0.00 | 69 | 1009.5 |
| 20260509093055 | 49 | 189 | 0.0 | 0.0 | 0.00 | 0.00 | 0.00 | 70 | 1009.7 |
| 20260509092552 | 50 | 242 | 0.9 | 1.7 | 0.00 | 0.00 | 0.00 | 68 | 1009.6 |
| 20260509092051 | 50 | 192 | 0.0 | 1.7 | 0.00 | 0.00 | 0.00 | 68 | 1009.9 |
| 20260509091548 | 50 | 295 | 2.6 | 4.3 | 0.00 | 0.00 | 0.00 | 66 | 1010.0 |
| 20260509091044 | 50 | 338 | 1.7 | 2.6 | 0.00 | 0.00 | 0.00 | 68 | 1009.9 |
| 20260509090542 | 50 | 225 | 1.7 | 1.7 | 0.00 | 0.00 | 0.00 | 67 | 1009.9 |
| 20260509090040 | 50 | 274 | 2.6 | 4.3 | 0.00 | 0.00 | 0.00 | 67 | 1010.0 |
| 20260509085537 | 50 | 328 | 0.9 | 1.7 | 0.00 | 0.00 | 0.00 | 67 | 1009.8 |
| 20260509085032 | 50 | 184 | 0.0 | 1.7 | 0.00 | 0.00 | 0.00 | 67 | 1009.9 |
| 20260509084530 | 50 | 96 | 0.9 | 0.9 | 0.00 | 0.00 | 0.00 | 67 | 1009.9 |
| 20260509084027 | 50 | 222 | 0.0 | 0.0 | 0.00 | 0.00 | 0.00 | 66 | 1009.8 |
| 20260509083524 | 50 | 333 | 1.7 | 1.7 | 0.00 | 0.00 | 0.00 | 66 | 1010.0 |
| 20260509083020 | 50 | 202 | 0.0 | 0.9 | 0.00 | 0.00 | 0.00 | 67 | 1010.1 |
| 20260509082518 | 50 | 231 | 0.0 | 1.7 | 0.00 | 0.00 | 0.00 | 68 | 1010.2 |
| 20260509082015 | 51 | 190 | 0.0 | 1.7 | 0.00 | 0.00 | 0.00 | 66 | 1010.4 |
| 20260509081513 | 50 | 199 | 0.9 | 0.9 | 0.00 | 0.00 | 0.00 | 68 | 1010.0 |
| 20260509081009 | 51 | 223 | 1.7 | 2.6 | 0.00 | 0.00 | 0.00 | 66 | 1009.9 |
| 20260509080507 | 51 | 194 | 0.0 | 2.6 | 0.00 | 0.00 | 0.00 | 67 | 1010.2 |
| 20260509080005 | 51 | 333 | 2.6 | 2.6 | 0.00 | 0.00 | 0.00 | 67 | 1010.0 |
| 20260509075502 | 50 | 208 | 0.0 | 0.9 | 0.00 | 0.00 | 0.00 | 67 | 1009.9 |
| 20260509075000 | 51 | 144 | 0.0 | 1.7 | 0.00 | 0.00 | 0.00 | 65 | 1010.1 |
| 20260509074457 | 50 | 17 | 0.0 | 0.9 | 0.00 | 0.00 | 0.00 | 65 | 1010.1 |
| 20260509073953 | 50 | 327 | 0.0 | 1.7 | 0.00 | 0.00 | 0.00 | 66 | 1010.0 |
| 20260509073449 | 50 | 217 | 0.9 | 2.6 | 0.00 | 0.00 | 0.00 | 68 | 1010.1 |
| 20260509072946 | 50 | 138 | 0.0 | 0.0 | 0.00 | 0.00 | 0.00 | 66 | 1010.5 |
| 20260509072443 | 50 | 113 | 0.0 | 1.7 | 0.00 | 0.00 | 0.00 | 66 | 1010.1 |
| 20260509071940 | 50 | 178 | 0.0 | 1.7 | 0.00 | 0.00 | 0.00 | 66 | 1010.2 |
| 20260509071436 | 50 | 322 | 0.9 | 5.2 | 0.00 | 0.00 | 0.00 | 66 | 1010.5 |
| 20260509070934 | 50 | 168 | 0.0 | 2.6 | 0.00 | 0.00 | 0.00 | 67 | 1010.4 |
| 20260509070431 | 49 | 267 | 0.9 | 0.9 | 0.00 | 0.00 | 0.00 | 67 | 1010.5 |
| 20260509065926 | 50 | 306 | 0.9 | 1.7 | 0.00 | 0.00 | 0.00 | 68 | 1010.5 |
| 20260509065422 | 49 | 127 | 0.0 | 0.9 | 0.00 | 0.00 | 0.00 | 68 | 1010.5 |
| 20260509064919 | 49 | 236 | 0.0 | 0.9 | 0.00 | 0.00 | 0.00 | 68 | 1010.5 |
| 20260509064416 | 49 | 333 | 0.0 | 1.7 | 0.00 | 0.00 | 0.00 | 68 | 1010.6 |
| 20260509063914 | 49 | 150 | 0.0 | 0.0 | 0.00 | 0.00 | 0.00 | 69 | 1010.5 |
| 20260509063410 | 49 | 184 | 0.0 | 1.7 | 0.00 | 0.00 | 0.00 | 68 | 1010.6 |
| 20260509062907 | 49 | 54 | 0.0 | 2.6 | 0.00 | 0.00 | 0.00 | 68 | 1010.7 |
| 20260509062404 | 49 | 180 | 0.0 | 1.7 | 0.00 | 0.00 | 0.00 | 68 | 1010.6 |
| 20260509061901 | 49 | 136 | 0.0 | 0.0 | 0.00 | 0.00 | 0.00 | 67 | 1010.7 |
| 20260509061359 | 49 | 153 | 0.0 | 1.7 | 0.00 | 0.00 | 0.00 | 67 | 1010.8 |
| 20260509060856 | 49 | 339 | 1.7 | 1.7 | 0.00 | 0.00 | 0.00 | 67 | 1010.9 |
| 20260509060354 | 50 | 164 | 0.0 | 1.7 | 0.00 | 0.00 | 0.00 | 67 | 1010.7 |
| 20260509055854 | 50 | 287 | 1.7 | 1.7 | 0.00 | 0.00 | 0.00 | 67 | 1011.0 |
| 20260509055350 | 50 | 139 | 0.0 | 0.9 | 0.00 | 0.00 | 0.00 | 66 | 1010.8 |
| 20260509054847 | 50 | 175 | 0.9 | 2.6 | 0.00 | 0.00 | 0.00 | 65 | 1010.8 |
| 20260509054343 | 50 | 219 | 0.9 | 0.9 | 0.00 | 0.00 | 0.00 | 64 | 1010.7 |
| 20260509053842 | 50 | 105 | 0.9 | 0.9 | 0.00 | 0.00 | 0.00 | 64 | 1011.1 |
| 20260509053339 | 50 | 121 | 0.0 | 0.9 | 0.00 | 0.00 | 0.00 | 64 | 1011.1 |
| 20260509052837 | 51 | 74 | 0.9 | 1.7 | 0.00 | 0.00 | 0.00 | 64 | 1010.9 |
| 20260509052334 | 51 | 129 | 0.0 | 0.9 | 0.00 | 0.00 | 0.00 | 63 | 1010.8 |
| 20260509051832 | 51 | 259 | 2.6 | 4.3 | 0.00 | 0.00 | 0.00 | 63 | 1010.9 |
| 20260509051330 | 50 | 173 | 0.0 | 0.0 | 0.00 | 0.00 | 0.00 | 64 | 1011.0 |
| 20260509050826 | 50 | 171 | 0.0 | 0.0 | 0.00 | 0.00 | 0.00 | 65 | 1011.0 |
| 20260509050323 | 51 | 115 | 0.0 | 0.0 | 0.00 | 0.00 | 0.00 | 64 | 1011.1 |
| 20260509045820 | 51 | 37 | 0.9 | 1.7 | 0.00 | 0.00 | 0.00 | 63 | 1011.0 |
| 20260509045317 | 50 | 239 | 0.0 | 0.9 | 0.00 | 0.00 | 0.00 | 64 | 1011.1 |
| 20260509044814 | 50 | 341 | 0.9 | 1.7 | 0.00 | 0.00 | 0.00 | 64 | 1010.9 |
| 20260509044312 | 50 | 65 | 0.0 | 0.9 | 0.00 | 0.00 | 0.00 | 65 | 1011.0 |
| 20260509043808 | 50 | 117 | 0.0 | 0.0 | 0.00 | 0.00 | 0.00 | 65 | 1011.2 |
| 20260509043304 | 50 | 143 | 0.0 | 0.0 | 0.00 | 0.00 | 0.00 | 64 | 1011.1 |
| 20260509042800 | 51 | 103 | 0.0 | 1.7 | 0.00 | 0.00 | 0.00 | 63 | 1011.3 |
| 20260509042256 | 51 | 128 | 0.0 | 1.7 | 0.00 | 0.00 | 0.00 | 62 | 1011.1 |
| 20260509041753 | 52 | 135 | 0.0 | 0.0 | 0.00 | 0.00 | 0.00 | 61 | 1011.2 |
| 20260509041250 | 52 | 176 | 0.0 | 0.0 | 0.00 | 0.00 | 0.00 | 60 | 1011.2 |
| 20260509040749 | 53 | 133 | 0.0 | 0.0 | 0.00 | 0.00 | 0.00 | 60 | 1011.1 |
| 20260509040245 | 53 | 147 | 0.0 | 0.0 | 0.00 | 0.00 | 0.00 | 61 | 1011.1 |
| 20260509035742 | 53 | 136 | 0.0 | 0.0 | 0.00 | 0.00 | 0.00 | 60 | 1010.9 |
| 20260509035239 | 53 | 136 | 0.0 | 0.0 | 0.00 | 0.00 | 0.00 | 59 | 1011.2 |
| 20260509034736 | 53 | 117 | 0.0 | 0.0 | 0.00 | 0.00 | 0.00 | 58 | 1010.9 |
| 20260509034234 | 53 | 113 | 0.0 | 1.7 | 0.00 | 0.00 | 0.00 | 58 | 1010.9 |
| 20260509033730 | 53 | 126 | 0.0 | 0.0 | 0.00 | 0.00 | 0.00 | 59 | 1010.9 |
| 20260509033228 | 53 | 107 | 0.0 | 0.9 | 0.00 | 0.00 | 0.00 | 58 | 1010.9 |
| 20260509032725 | 53 | 343 | 0.0 | 1.7 | 0.00 | 0.00 | 0.00 | 58 | 1011.0 |